Location: Fort Worth, Tx
(32.7431°N, 97.3695°W)
Time: 19:24:09
(UTC-04:00)

Transit 4A - Pass Details

Date: 02 March 2024
Orbit: 871 x 972 km, 66.8° (Epoch: 22 April)

Event Time Altitude Azimuth Distance (km) Brightness Sun altitude
Rises 10:24:41 0° 337° (NNW) 3,473 10.5 28.8°
Reaches altitude 10° 10:27:13 10° 341° (NNW) 2,526 9.9 29.2°
Maximum altitude 10:32:59 64° 62° (ENE) 961 8.7 30.2°
Drops below altitude 10° 10:38:44 10° 144° (SE) 2,515 11.5 31.3°
Sets 10:41:14 0° 147° (SSE) 3,457 11.8 31.7°
